Total_Precipitation_Accumulation
0.00 0.00 0.00 0.00 0.00 0.00 0.00 0.01 0.01 0.02 0.03 0.04 0.07 0.09 0.09 0.05 0.04 0.05 0.06 0.05 0.05 0.06 0.11 0.15 0.14 0.13 0.14 0.11 0.13 0.18 0.16 0.16 0.13 0.05 0.05 0.08 0.08 0.07 0.09 0.13 0.15 0.19 0.21
0.00 0.00 0.00 0.00 0.00 0.00 0.00 0.01 0.03 0.05 0.08 0.12 0.15 0.21 0.18 0.12 0.11 0.12 0.09 0.06 0.09 0.10 0.10 0.11 0.12 0.15 0.13 0.13 0.16 0.19 0.18 0.14 0.15 0.10 0.06 0.07 0.08 0.07 0.08 0.12 0.12 0.12 0.15
0.00 0.00 0.00 0.00 0.00 0.00 0.01 0.03 0.06 0.12 0.15 0.14 0.15 0.21 0.24 0.23 0.31 0.24 0.18 0.17 0.19 0.18 0.16 0.15 0.14 0.18 0.20 0.16 0.24 0.27 0.27 0.31 0.31 0.26 0.15 0.14 0.14 0.14 0.13 0.13 0.12 0.10 0.10
0.00 0.00 0.00 0.00 0.00 0.00 0.01 0.04 0.08 0.11 0.14 0.16 0.19 0.27 0.20 0.19 0.38 0.43 0.40 0.37 0.46 0.40 0.34 0.31 0.25 0.28 0.32 0.30 0.25 0.26 0.34 0.27 0.34 0.35 0.36 0.27 0.23 0.15 0.20 0.17 0.16 0.15 0.12
0.00 0.00 0.00 0.00 0.00 0.01 0.03 0.04 0.08 0.12 0.16 0.20 0.19 0.21 0.28 0.31 0.38 0.50 0.53 0.55 0.55 0.60 0.54 0.48 0.50 0.54 0.53 0.51 0.45 0.35 0.31 0.49 0.30 0.30 0.34 0.34 0.28 0.42 0.28 0.19 0.19 0.15 0.19
0.00 0.00 0.00 0.00 0.00 0.00 0.03 0.04 0.06 0.10 0.14 0.17 0.17 0.16 0.16 0.27 0.38 0.43 0.58 0.62 0.58 0.62 0.57 0.56 0.53 0.55 0.50 0.54 0.49 0.52 0.52 0.51 0.63 0.44 0.36 0.44 0.46 0.27 0.44 0.44 0.52 0.41 0.25
0.00 0.00 0.00 0.00 0.00 0.00 0.00 0.00 0.02 0.05 0.07 0.10 0.11 0.13 0.10 0.14 0.21 0.21 0.28 0.47 0.61 0.58 0.50 0.44 0.43 0.52 0.51 0.45 0.53 0.50 0.57 0.58 0.66 0.72 0.60 0.42 0.59 0.50 0.38 0.55 0.44 0.28 0.29
0.00 0.00 0.00 0.00 0.00 0.00 0.00 0.00 0.00 0.00 0.01 0.01 0.02 0.06 0.08 0.06 0.07 0.07 0.06 0.07 0.22 0.45 0.53 0.45 0.41 0.34 0.43 0.50 0.46 0.53 0.53 0.62 0.67 0.73 0.67 0.59 0.56 0.52 0.55 0.49 0.69 0.81 0.55
0.00 0.00 0.00 0.00 0.00 0.00 0.00 0.00 0.00 0.01 0.00 0.00 0.00 0.00 0.00 0.01 0.04 0.04 0.03 0.03 0.04 0.07 0.16 0.31 0.37 0.31 0.29 0.35 0.42 0.47 0.53 0.56 0.67 0.74 0.84 0.64 0.72 0.69 0.56 0.69 0.59 0.55 0.74
0.00 0.00 0.00 0.00 0.00 0.00 0.00 0.00 0.00 0.00 0.00 0.00 0.01 0.00 0.00 0.00 0.01 0.03 0.03 0.02 0.02 0.02 0.02 0.05 0.14 0.25 0.25 0.27 0.26 0.31 0.43 0.47 0.55 0.58 0.74 0.75 0.56 0.70 0.66 0.54 0.69 0.70 0.64
0.00 0.00 0.00 0.00 0.00 0.00 0.00 0.00 0.00 0.00 0.00 0.00 0.01 0.00 0.00 0.00 0.01 0.03 0.03 0.03 0.06 0.03 0.02 0.03 0.04 0.08 0.17 0.18 0.16 0.16 0.24 0.28 0.35 0.46 0.50 0.69 0.73 0.57 0.73 0.66 0.59 0.78 0.89
0.00 0.00 0.00 0.00 0.00 0.00 0.00 0.00 0.00 0.00 0.00 0.01 0.01 0.00 0.00 0.00 0.01 0.03 0.02 0.02 0.03 0.03 0.03 0.04 0.02 0.03 0.04 0.06 0.12 0.15 0.13 0.10 0.13 0.20 0.27 0.36 0.54 0.63 0.55 0.76 0.75 0.77 0.83
0.00 0.00 0.00 0.00 0.00 0.00 0.00 0.01 0.01 0.01 0.02 0.02 0.02 0.01 0.01 0.00 0.01 0.02 0.02 0.01 0.02 0.01 0.02 0.01 0.02 0.02 0.01 0.01 0.02 0.04 0.08 0.09 0.09 0.12 0.14 0.19 0.31 0.44 0.49 0.53 0.63 0.70 0.79
0.00 0.00 0.00 0.00 0.00 0.00 0.00 0.00 0.02 0.04 0.04 0.04 0.04 0.03 0.02 0.01 0.03 0.05 0.04 0.02 0.01 0.01 0.01 0.00 0.01 0.01 0.00 0.01 0.01 0.01 0.03 0.06 0.09 0.09 0.12 0.13 0.14 0.22 0.29 0.40 0.51 0.53 0.62
0.00 0.00 0.00 0.01 0.01 0.01 0.01 0.01 0.02 0.03 0.06 0.08 0.07 0.04 0.08 0.10 0.09 0.07 0.06 0.04 0.03 0.02 0.00 0.01 0.01 0.01 0.01 0.00 0.01 0.01 0.01 0.02 0.04 0.06 0.06 0.07 0.08 0.15 0.20 0.25 0.34 0.43 0.49
0.00 0.00 0.00 0.01 0.01 0.01 0.01 0.01 0.01 0.00 0.01 0.01 0.02 0.02 0.03 0.04 0.04 0.03 0.03 0.02 0.02 0.01 0.01 0.01 0.02 0.03 0.03 0.03 0.03 0.02 0.01 0.02 0.03 0.04 0.05 0.05 0.06 0.08 0.17 0.18 0.22 0.30 0.36
0.00 0.00 0.01 0.01 0.01 0.02 0.02 0.02 0.03 0.01 0.00 0.00 0.01 0.01 0.01 0.02 0.02 0.03 0.02 0.01 0.01 0.01 0.02 0.02 0.03 0.04 0.04 0.03 0.03 0.03 0.03 0.03 0.03 0.04 0.05 0.04 0.05 0.05 0.09 0.17 0.18 0.22 0.25
0.00 0.00 0.01 0.01 0.02 0.02 0.01 0.02 0.04 0.03 0.02 0.01 0.01 0.01 0.00 0.00 0.01 0.02 0.02 0.01 0.01 0.01 0.02 0.04 0.04 0.04 0.04 0.04 0.04 0.04 0.03 0.03 0.03 0.04 0.04 0.03 0.04 0.05 0.05 0.10 0.14 0.19 0.22
0.00 0.01 0.00 0.01 0.02 0.01 0.01 0.01 0.03 0.02 0.02 0.01 0.01 0.01 0.00 0.00 0.01 0.01 0.01 0.03 0.04 0.03 0.03 0.03 0.04 0.05 0.05 0.05 0.05 0.04 0.04 0.05 0.04 0.04 0.04 0.04 0.05 0.06 0.05 0.05 0.08 0.10 0.16
0.00 0.00 0.00 0.01 0.01 0.01 0.01 0.02 0.04 0.03 0.02 0.02 0.02 0.03 0.01 0.00 0.01 0.02 0.02 0.03 0.03 0.04 0.03 0.04 0.04 0.05 0.05 0.06 0.05 0.05 0.05 0.04 0.04 0.04 0.03 0.04 0.04 0.05 0.07 0.07 0.07 0.10 0.09
0.01 0.00 0.00 0.00 0.01 0.01 0.02 0.03 0.05 0.04 0.02 0.02 0.02 0.02 0.01 0.02 0.03 0.03 0.03 0.04 0.05 0.05 0.05 0.04 0.05 0.05 0.05 0.05 0.04 0.04 0.06 0.05 0.04 0.04 0.04 0.04 0.04 0.05 0.04 0.07 0.07 0.07 0.08
0.00 0.00 0.00 0.01 0.01 0.01 0.02 0.02 0.04 0.04 0.03 0.02 0.02 0.01 0.01 0.01 0.02 0.03 0.04 0.04 0.05 0.05 0.06 0.06 0.05 0.05 0.07 0.08 0.08 0.07 0.08 0.05 0.04 0.05 0.04 0.04 0.04 0.04 0.06 0.07 0.06 0.07 0.08
0.00 0.00 0.00 0.00 0.01 0.00 0.01 0.02 0.02 0.04 0.03 0.03 0.02 0.02 0.02 0.02 0.02 0.03 0.03 0.04 0.04 0.04 0.04 0.05 0.05 0.04 0.04 0.05 0.06 0.11 0.15 0.10 0.10 0.11 0.10 0.06 0.05 0.06 0.09 0.09 0.09 0.11 0.11
0.00 0.00 0.00 0.00 0.01 0.00 0.01 0.02 0.02 0.02 0.03 0.02 0.03 0.03 0.03 0.03 0.03 0.03 0.03 0.03 0.03 0.02 0.03 0.03 0.04 0.05 0.04 0.04 0.05 0.09 0.08 0.10 0.10 0.09 0.10 0.10 0.08 0.08 0.09 0.09 0.09 0.11 0.12
0.00 0.00 0.00 0.01 0.01 0.01 0.01 0.01 0.02 0.02 0.03 0.03 0.03 0.03 0.03 0.03 0.03 0.02 0.03 0.02 0.02 0.02 0.02 0.02 0.03 0.03 0.03 0.03 0.05 0.06 0.04 0.03 0.04 0.06 0.07 0.08 0.10 0.09 0.10 0.11 0.11 0.12 0.13
0.00 0.00 0.00 0.01 0.01 0.02 0.02 0.02 0.02 0.02 0.02 0.03 0.03 0.03 0.04 0.04 0.02 0.02 0.02 0.02 0.02 0.01 0.02 0.02 0.01 0.01 0.02 0.02 0.04 0.03 0.02 0.02 0.03 0.03 0.05 0.08 0.09 0.09 0.10 0.11 0.11 0.13 0.14